Location: ?????
(30.2541°N, 31.0910°E)
Time: 06:42:48
(UTC+00:00)

Cosmos 2082 Rocket - Pass Details

Date: 27 September 2022
Orbit: 831 x 855 km, 71.0° (Epoch: 28 November)

Event Time Altitude Azimuth Distance (km) Brightness Sun altitude
Exits shadow 02:43:22 - 211° (SSW) 2,909 4.6 -14.5°
Reaches altitude 10° 02:44:38 10° 214° (SSW) 2,433 4.2 -14.2°
Maximum altitude 02:50:06 56° 292° (WNW) 983 2.2 -13.0°
Drops below altitude 10° 02:55:35 10° 10° (N) 2,441 4.8 -11.8°
Sets 02:58:05 0° 15° (NNE) 3,378 5.6 -11.3°
